Regional Weather Roundup
Issued by NWS

Home | Current Version | Previous Version | Text Only | Print | Product List | Glossary On
Versions: 1 2 3 4 5 6 7 8 9 10 11 12 13 14 15 16 17 18 19 20 21 22 23 24 25 26 27 28 29 30 31 32 33 34 35 36 37 38 39 40 41 42 43 44 45 46 47 48 49 50
000
ASMX46 KSGX 222111
RWRMX

MEXICAN WEATHER ROUNDUP
NATIONAL WEATHER SERVICE SAN DIEGO CA
100 PM PST WED FEB 22 2017

BAJA CALIFORNIA

CITY           SKY/WX    TMP DP  RH WIND       PRES   REMARKS
LA PAZ         SUNNY     81  48  32 N12       29.94F
LORETO         SUNNY     77  64  65 NE12      29.88F
MEXICALI       PTSUNNY   84  34  16 S5        29.91F
S.J. DEL CABO  SUNNY     81  52  36 SE17      29.92F
TIJUANA        PTSUNNY   59  48  67 W7        30.12F

NORTHWESTERN MEXICO

CITY           SKY/WX    TMP DP  RH WIND       PRES   REMARKS
CHIHUAHUA      SUNNY     84  27  12 SE9       30.02F
CULIACAN       SUNNY     79  64  61 S12       29.89F
GUAYMAS        SUNNY     81  63  54 S12       29.82F
HERMOSILLO     SUNNY     90  52  27 W5        29.88F
JUAREZ         SUNNY     77  39  25 SW13      29.94F
LOS MOCHIS     SUNNY     81  57  44 SE5       29.88F
OBREGON        SUNNY     82  59  44 SW6       29.84F

NORTHEASTERN MEXICO

CITY           SKY/WX    TMP DP  RH WIND       PRES   REMARKS
MATAMOROS      SUNNY     91  39  16 W7        29.85F
MONCLOVA       SUNNY     93  27   9 S9        29.89F
MONTERREY      SUNNY     99   5   3 N8        29.85F
NUEVO LAREDO   SUNNY     90  32  12 NW7       29.84F
PIEDRAS NEGRAS SUNNY     93  46  20 CALM      29.87F
REYNOSA        SUNNY     90  21   8 N3        29.84F
SALTILLO       SUNNY     84  43  23 W7        30.14F
TORREON        SUNNY     82  18   9 CALM      30.06F
VICTORIA       SUNNY     95  16   5 CALM      29.87F

WESTERN MEXICO

CITY           SKY/WX    TMP DP  RH WIND       PRES   REMARKS
AGUASCALIENTES SUNNY     79  -4   4 CALM      30.18F
COLIMA         MOSUNNY   81  57  44 SW14      29.97F
DURANGO        SUNNY     73  -2   5 SE6       30.21F
GUADALAJARA    SUNNY     79  23  12 S7        30.11F
MANZANILLO     SUNNY     77  68  73 SW12      29.89
MAZATLAN       SUNNY     79  64  61 W5        29.91F
PTO. VALLARTA  SUNNY     77  70  78 SW10      29.89F
TEPIC          SUNNY     82  43  24 NW12      30.01F
URUAPAN        SUNNY     75  45  33 S12       30.12F
ZACATECAS      SUNNY     75  18  11 NE9       30.24F

CENTRAL MEXICO

CITY           SKY/WX    TMP DP  RH WIND       PRES   REMARKS
CUERNAVACA     SUNNY     86  43  22 S8        30.02F
LEON           SUNNY     81  16   9 E9        30.21F
MEXICO CITY    SUNNY     73  23  15 SW6       30.23F
MORELIA        SUNNY     77  28  16 CALM      30.16F
POZA RICA      SUNNY     95  54  24 CALM      29.93F
PUEBLA         SUNNY     75  12   9 E2        30.21F
QUERETARO      SUNNY     77  10   8 E6        30.21F
S. LUIS POTOSI SUNNY     77  -8   3 CALM      30.17F
TAMPICO        SUNNY     91  41  17 SW12      29.87F
TOLUCA         SUNNY     72  23  16 NW6       30.29F
VERACRUZ       SUNNY     90  41  18 E10       29.89F

SOUTHERN MEXICO

CITY           SKY/WX    TMP DP  RH WIND       PRES   REMARKS
ACAPULCO       SUNNY     84  73  70 W10       29.84F
B. DE HUATULCO MOSUNNY   86  72  62 S12       29.90F
MINATITLAN     SUNNY     86  77  74 CALM      29.91F HX  97
OAXACA         PTSUNNY   82  37  20 CALM      30.07F
PTO. ESCONDIDO MOSUNNY   84  73  70 SW12      29.95F
TAPACHULA      MOSUNNY   90  70  51 SW12      29.80F HX  95
TUX. GUTIERREZ MOSUNNY   88  55  33 NW5       29.87F
VILLAHERMOSA   SUNNY     86  48  26 CALM      29.92F
ZIHUATANEJO    SUNNY     84  72  65 SW14      29.88F

YUCATAN PENINSULA

CITY           SKY/WX    TMP DP  RH WIND       PRES   REMARKS
CAMPECHE       MOSUNNY   79  64  61 W17G29    29.88F
CANCUN         MOSUNNY   81  54  39 NW23      29.78F
CHETUMAL       SUNNY     91  46  21 NW12      29.78F
C. DEL CARMEN  SUNNY     82  66  57 N12       29.90F
COZUMEL        SUNNY     86  57  37 NW22      29.76F
MERIDA         PTSUNNY   84  54  34 W20       29.89R

$$




USA.gov is the U.S. government's official web portal to all federal, state and local government web resources and services.